Weather History for Flamingo Airport, Bonaire, Bonaire

Change the Weather History Date:

Sunday, September 30, 2012

  Actual Average Record
Temperature  
Mean Temperature 86 °F -  
Max Temperature 89 °F 88 °F - ()
Min Temperature 83 °F 81 °F - ()
Cooling Degree Days 21    
Growing Degree Days 36 (Base 50)    
Moisture  
Dew Point 77 °F    
Average Humidity 74    
Maximum Humidity 79    
Minimum Humidity 59    
Precipitation  
Precipitation 0.00 in - - ()
Sea Level Pressure  
Sea Level Pressure 29.90 in    
Wind  
Wind Speed 13 mph ()    
Max Wind Speed 23 mph    
Max Gust Speed -    
Visibility 9.4 miles    
Events      
T = Trace of Precipitation, MM = Missing Value Source: Averaged Metar Reports

Daily Weather History Graph

Daily Weather History Graph

Search for Another Location

Airport:

Trip Planner

Search our weather history database for the weather conditions in past years. The results will help you decide how hot, cold, wet, or windy it might be!

Date:

Astronomy

Sep. 30, 2012 Rise Set
Actual Time 6:22 AM AST 6:23 PM AST
Civil Twilight 6:01 AM AST 6:44 PM AST
Nautical Twilight 5:36 AM AST 7:09 PM AST
Astronomical Twilight 5:11 AM AST 7:33 PM AST
Moon 6:43 PM AST (9/30) 6:35 AM AST (9/30)
Length of Visible Light 12h 43m
Length of Day
12h 01m
Full, 100% of the Moon is Illuminated
Sep 30
Full
Oct 8
Last Quarter
Oct 15
New
Oct 21
First Quarter
Oct 29
Full

Hourly Weather History & Observations

Time (AST) Temp. Heat Index Dew Point Humidity Pressure Visibility Wind Dir Wind Speed Gust Speed Precip Events Conditions
1:00 AM 84.2 °F 94.1 °F 77.0 °F 79% 29.92 in - ESE 11.5 mph - N/A   Unknown
2:00 AM 84 °F - 77 °F 74%  in - ESE 11.5 mph - -   Clear
2:00 AM 84.2 °F 94.1 °F 77.0 °F 79% 29.92 in - ESE 11.5 mph - N/A   Unknown
3:00 AM 84.2 °F 94.1 °F 77.0 °F 79% 29.92 in - ESE 11.5 mph - N/A   Unknown
4:00 AM 84.2 °F 94.1 °F 77.0 °F 79% 29.92 in - ESE 11.5 mph - N/A   Unknown
5:00 AM 84.2 °F 94.1 °F 77.0 °F 79% 29.92 in - ESE 11.5 mph - N/A   Unknown
7:00 AM 84.2 °F 94.1 °F 77.0 °F 79% 29.92 in - ESE 11.5 mph - N/A   Unknown
8:00 AM 86 °F - 79 °F 73% 29.94 in 19 mi East 19.6 mph - -   Partly Cloudy
8:00 AM 86.0 °F 99.3 °F 78.8 °F 79% 29.92 in 6.2 mi East 19.6 mph - N/A   Scattered Clouds
9:00 AM 87.8 °F 102.5 °F 78.8 °F 75% 29.95 in 6.2 mi ESE 20.7 mph - N/A   Scattered Clouds
10:00 AM 87.8 °F 102.5 °F 78.8 °F 75% 29.95 in - North - - N/A   Unknown
11:00 AM 89 °F - 78 °F 64% 29.96 in 19 mi ESE 23.0 mph - -   Mostly Cloudy
11:00 AM 87.8 °F 99.7 °F 77.0 °F 70% 29.95 in 6.2 mi ESE 23.0 mph - N/A   Mostly Cloudy
12:00 PM 87.8 °F 102.5 °F 78.8 °F 75% 29.92 in 6.2 mi East 23.0 mph - N/A   Scattered Clouds
1:00 PM 87.8 °F 102.5 °F 78.8 °F 75% 29.89 in 6.2 mi ESE 23.0 mph - N/A   Scattered Clouds
2:00 PM 89 °F - 77 °F 59%  in 6 mi ESE 11.5 mph - -   Clear
2:00 PM 87.8 °F 99.7 °F 77.0 °F 70% 29.86 in - ESE 11.5 mph - N/A   Unknown
3:00 PM 89.6 °F 102.2 °F 77.0 °F 66% 29.86 in 6.2 mi East 20.7 mph - N/A   Scattered Clouds
4:00 PM 87.8 °F 99.7 °F 77.0 °F 70% 29.86 in - ESE 11.5 mph - N/A   Unknown
5:00 PM 87.8 °F 99.7 °F 77.0 °F 70% 29.83 in - North - - N/A   Unknown
6:00 PM 86.0 °F 96.9 °F 77.0 °F 74% 29.83 in - North - - N/A   Unknown
7:00 PM 84.2 °F 94.1 °F 77.0 °F 79% 29.86 in - North - - N/A   Unknown
8:00 PM 84.2 °F 92.3 °F 75.2 °F 74% 29.86 in 6.2 mi East 15.0 mph - N/A   Partly Cloudy
9:00 PM 84.2 °F 92.3 °F 75.2 °F 74% 29.89 in - ESE 11.5 mph - N/A   Unknown
11:00 PM 83 °F - 76 °F 75%  in 16 mi ESE 11.5 mph - -   Clear
11:00 PM 84.2 °F 94.1 °F 77.0 °F 79% 29.92 in - North - - N/A   Unknown